�������l�o���
Date,Time,MP-1(��Sv/h),MP-2(��Sv/h),MP-3(��Sv/h),MP-4(��Sv/h),MP-5(��Sv/h),MP-6(��Sv/h),MP-7(��Sv/h),����,����(m/s),���J
2016/04/07,00:00,0.461,0.261,0.475,0.423,0.395,0.215,0.188,��쐼,6.4,��
2016/04/07,00:10,0.458,0.262,0.480,0.421,0.393,0.215,0.189,��쐼,6.4,��
2016/04/07,00:20,0.460,0.263,0.477,0.421,0.394,0.215,0.188,��,6.4,��
2016/04/07,00:30,0.459,0.263,0.478,0.422,0.393,0.216,0.189,��,7.8,��
2016/04/07,00:40,0.459,0.264,0.479,0.421,0.392,0.214,0.187,��,8.3,��
2016/04/07,00:50,0.459,0.264,0.477,0.425,0.394,0.214,0.188,��,8.3,��
2016/04/07,01:00,0.459,0.262,0.478,0.422,0.395,0.214,0.189,��,7.6,��
2016/04/07,01:10,0.457,0.262,0.477,0.423,0.393,0.215,0.188,��쐼,7.6,��
2016/04/07,01:20,0.459,0.263,0.477,0.423,0.394,0.214,0.188,��,7.8,��
2016/04/07,01:30,0.458,0.263,0.478,0.421,0.393,0.213,0.187,��,8.9,��
2016/04/07,01:40,0.456,0.262,0.477,0.423,0.392,0.215,0.187,��,7.7,��
2016/04/07,01:50,0.461,0.262,0.476,0.423,0.394,0.214,0.187,��,6.7,��
2016/04/07,02:00,0.456,0.262,0.479,0.421,0.392,0.214,0.189,��,7.8,��
2016/04/07,02:10,0.461,0.262,0.475,0.424,0.393,0.215,0.187,��,7.3,��
2016/04/07,02:20,0.457,0.262,0.477,0.420,0.394,0.214,0.187,��,6.5,��
2016/04/07,02:30,0.457,0.262,0.476,0.423,0.392,0.214,0.187,��,5.6,��
2016/04/07,02:40,0.459,0.264,0.476,0.422,0.394,0.215,0.187,��쓌,4.8,��
2016/04/07,02:50,0.458,0.261,0.477,0.420,0.391,0.216,0.187,��쓌,5.0,��
2016/04/07,03:00,0.460,0.262,0.475,0.423,0.396,0.215,0.187,��,4.9,��
2016/04/07,03:10,0.457,0.263,0.478,0.421,0.392,0.215,0.187,��,5.0,��
2016/04/07,03:20,0.459,0.261,0.475,0.424,0.394,0.214,0.187,��,4.9,��
2016/04/07,03:30,0.457,0.262,0.478,0.421,0.395,0.215,0.186,��,5.3,��
2016/04/07,03:40,0.457,0.262,0.476,0.422,0.393,0.215,0.187,��쓌,4.5,��
2016/04/07,03:50,0.461,0.262,0.475,0.423,0.396,0.215,0.187,��쓌,4.7,��
2016/04/07,04:00,0.457,0.264,0.479,0.420,0.393,0.215,0.187,��,5.0,��
2016/04/07,04:10,0.462,0.261,0.476,0.424,0.395,0.215,0.187,��쓌,4.9,��
2016/04/07,04:20,0.458,0.263,0.479,0.423,0.393,0.215,0.188,��,5.3,��
2016/04/07,04:30,0.460,0.264,0.475,0.423,0.393,0.215,0.188,��,5.6,��
2016/04/07,04:40,0.458,0.262,0.477,0.423,0.395,0.215,0.187,��,5.5,��
2016/04/07,04:50,0.457,0.264,0.477,0.423,0.394,0.215,0.188,��,5.1,��
2016/04/07,05:00,0.462,0.262,0.476,0.423,0.393,0.215,0.188,��,4.7,��
2016/04/07,05:10,0.456,0.263,0.481,0.423,0.394,0.214,0.188,��,4.3,��
2016/04/07,05:20,0.461,0.265,0.476,0.422,0.392,0.214,0.188,��,3.5,��
2016/04/07,05:30,0.458,0.263,0.477,0.422,0.396,0.215,0.188,��,4.2,��
2016/04/07,05:40,0.458,0.263,0.477,0.421,0.392,0.215,0.187,��,5.6,��
2016/04/07,05:50,0.460,0.263,0.476,0.422,0.394,0.215,0.188,��,5.6,��
2016/04/07,06:00,0.456,0.263,0.477,0.423,0.394,0.215,0.186,��,4.8,��
2016/04/07,06:10,0.461,0.263,0.476,0.421,0.393,0.215,0.188,��,4.8,��
2016/04/07,06:20,0.457,0.262,0.478,0.420,0.394,0.215,0.187,��,4.7,��
2016/04/07,06:30,0.459,0.261,0.476,0.421,0.393,0.214,0.187,��,6.2,��
2016/04/07,06:40,0.458,0.263,0.475,0.423,0.396,0.213,0.187,��쐼,8.0,��
2016/04/07,06:50,0.456,0.262,0.477,0.421,0.394,0.215,0.187,��쐼,9.0,��
2016/04/07,07:00,0.461,0.263,0.475,0.421,0.391,0.215,0.187,��쐼,8.8,��
2016/04/07,07:10,0.457,0.263,0.479,0.421,0.395,0.214,0.188,��쐼,9.5,��
2016/04/07,07:20,0.459,0.261,0.476,0.419,0.392,0.215,0.187,��,8.7,��
2016/04/07,07:30,0.457,0.262,0.477,0.423,0.396,0.214,0.188,��,7.9,��
2016/04/07,07:40,0.460,0.261,0.476,0.420,0.393,0.214,0.188,��,6.7,��
2016/04/07,07:50,0.458,0.263,0.476,0.421,0.393,0.216,0.187,��,5.8,��
2016/04/07,08:00,0.457,0.263,0.476,0.420,0.395,0.214,0.187,��,5.1,��
2016/04/07,08:10,0.458,0.262,0.475,0.423,0.393,0.215,0.187,��,5.7,�L
2016/04/07,08:20,0.458,0.265,0.478,0.421,0.397,0.216,0.188,��,6.7,�L
2016/04/07,08:30,0.463,0.265,0.476,0.424,0.395,0.218,0.191,��,7.9,�L
2016/04/07,08:40,0.459,0.267,0.481,0.425,0.397,0.218,0.192,��,8.2,�L
2016/04/07,08:50,0.464,0.266,0.478,0.425,0.398,0.218,0.192,��쐼,8.5,�L
2016/04/07,09:00,0.460,0.266,0.482,0.428,0.397,0.220,0.193,��쐼,9.1,�L
2016/04/07,09:10,0.463,0.267,0.479,0.424,0.398,0.220,0.192,��쐼,10.5,�L
2016/04/07,09:20,0.464,0.267,0.477,0.423,0.396,0.220,0.192,��쐼,10.7,�L
2016/04/07,09:30,0.459,0.268,0.478,0.422,0.394,0.220,0.192,��쐼,10.5,�L
2016/04/07,09:40,0.463,0.267,0.472,0.420,0.394,0.220,0.191,��쐼,11.2,�L
2016/04/07,09:50,0.457,0.266,0.476,0.420,0.393,0.219,0.191,��쐼,11.5,�L
2016/04/07,10:00,0.459,0.266,0.471,0.420,0.395,0.219,0.191,��쐼,10.2,�L
2016/04/07,10:10,0.454,0.263,0.471,0.418,0.392,0.219,0.190,��쐼,10.7,�L
2016/04/07,10:20,0.457,0.266,0.470,0.418,0.391,0.217,0.190,��,10.6,�L
2016/04/07,10:30,0.454,0.264,0.466,0.414,0.390,0.218,0.190,��쐼,9.7,�L
2016/04/07,10:40,0.452,0.264,0.469,0.416,0.392,0.217,0.190,��쐼,11.7,�L
2016/04/07,10:50,0.454,0.265,0.466,0.415,0.392,0.217,0.188,��쐼,9.3,�L
2016/04/07,11:00,0.450,0.264,0.465,0.412,0.389,0.218,0.189,��쐼,9.5,�L
2016/04/07,11:10,0.454,0.265,0.464,0.411,0.389,0.216,0.189,��쐼,9.1,�L
2016/04/07,11:20,0.449,0.262,0.462,0.408,0.391,0.216,0.187,��,7.8,�L
2016/04/07,11:30,0.451,0.264,0.464,0.410,0.389,0.216,0.188,��쐼,7.7,�L
2016/04/07,11:40,0.450,0.264,0.460,0.409,0.391,0.215,0.188,�쐼,15.7,�L
2016/04/07,11:50,0.447,0.261,0.462,0.406,0.390,0.217,0.187,��,10.7,�L
2016/04/07,12:00,0.453,0.264,0.460,0.409,0.391,0.217,0.189,��쐼,9.5,�L
2016/04/07,12:10,0.450,0.264,0.462,0.408,0.392,0.217,0.189,��,11.0,�L
2016/04/07,12:20,0.452,0.265,0.464,0.411,0.391,0.217,0.189,��쐼,10.9,�L
2016/04/07,12:30,0.451,0.265,0.462,0.408,0.394,0.218,0.190,��,12.5,�L
2016/04/07,12:40,0.450,0.265,0.466,0.409,0.391,0.217,0.189,��쐼,10.9,�L
2016/04/07,12:50,0.451,0.265,0.461,0.411,0.393,0.217,0.188,��,10.0,�L
2016/04/07,13:00,0.449,0.264,0.463,0.408,0.391,0.217,0.190,��쐼,8.9,�L
2016/04/07,13:10,0.449,0.263,0.458,0.406,0.389,0.216,0.188,��쐼,10.9,�L
2016/04/07,13:20,0.445,0.263,0.457,0.405,0.392,0.217,0.188,��쐼,8.5,�L
2016/04/07,13:30,0.449,0.263,0.462,0.404,0.391,0.217,0.189,��쐼,8.2,�L
2016/04/07,13:40,0.445,0.265,0.458,0.407,0.391,0.216,0.188,��,7.6,�L
2016/04/07,13:50,0.446,0.264,0.459,0.404,0.391,0.217,0.190,��쐼,11.7,�L
2016/04/07,14:00,0.444,0.264,0.458,0.404,0.389,0.216,0.190,��,10.0,�L
2016/04/07,14:10,0.441,0.264,0.455,0.401,0.391,0.216,0.188,��,13.3,�L
2016/04/07,14:20,0.444,0.262,0.458,0.400,0.389,0.215,0.189,��쐼,11.1,�L
2016/04/07,14:30,0.439,0.263,0.455,0.401,0.388,0.214,0.188,��쓌,5.9,�L
2016/04/07,14:40,0.441,0.263,0.457,0.397,0.389,0.215,0.189,��,11.0,�L
2016/04/07,14:50,0.439,0.264,0.456,0.403,0.389,0.214,0.189,��,14.6,�L
2016/04/07,15:00,0.440,0.265,0.457,0.402,0.391,0.214,0.189,��쐼,15.4,�L
2016/04/07,15:10,0.442,0.263,0.458,0.403,0.389,0.215,0.188,��,13.9,�L
2016/04/07,15:20,0.437,0.265,0.456,0.403,0.392,0.214,0.188,��,15.5,�L
2016/04/07,15:30,0.441,0.263,0.459,0.400,0.388,0.214,0.188,��,10.7,�L
2016/04/07,15:40,0.439,0.263,0.454,0.401,0.386,0.215,0.189,��,13.8,�L
2016/04/07,15:50,0.441,0.264,0.458,0.402,0.392,0.215,0.189,��,11.7,�L
2016/04/07,16:00,0.442,0.266,0.459,0.404,0.392,0.217,0.191,��쐼,10.1,�L
2016/04/07,16:10,0.442,0.267,0.459,0.407,0.394,0.215,0.191,��,8.5,�L
2016/04/07,16:20,0.445,0.264,0.463,0.405,0.392,0.216,0.190,��쐼,10.8,�L
2016/04/07,16:30,0.440,0.265,0.460,0.406,0.393,0.215,0.188,��,8.6,�L
2016/04/07,16:40,0.441,0.262,0.462,0.408,0.390,0.212,0.187,��쐼,7.0,�L
2016/04/07,16:50,0.437,0.262,0.456,0.406,0.390,0.211,0.186,��쐼,6.8,��
2016/04/07,17:00,0.440,0.259,0.460,0.406,0.390,0.209,0.184,��쐼,4.6,��
2016/04/07,17:10,0.436,0.257,0.455,0.405,0.387,0.207,0.182,��쐼,3.3,��
2016/04/07,17:20,0.439,0.259,0.457,0.405,0.389,0.206,0.181,��쐼,2.2,��
2016/04/07,17:30,0.435,0.257,0.454,0.401,0.386,0.206,0.181,��,1.0,��
2016/04/07,17:40,0.436,0.257,0.455,0.404,0.386,0.204,0.178,�k��,2.2,��
2016/04/07,17:50,0.432,0.255,0.454,0.401,0.386,0.205,0.179,���k��,1.7,��
2016/04/07,18:00,0.436,0.256,0.455,0.404,0.386,0.202,0.178,��,2.3,��
2016/04/07,18:10,0.435,0.252,0.455,0.399,0.386,0.203,0.179,�k��,2.1,��
2016/04/07,18:20,0.433,0.254,0.453,0.403,0.383,0.203,0.177,�k,3.1,��
2016/04/07,18:30,0.435,0.254,0.455,0.403,0.386,0.203,0.177,�k,5.2,��
2016/04/07,18:40,0.434,0.254,0.454,0.402,0.384,0.203,0.177,�k,5.3,��
2016/04/07,18:50,0.437,0.254,0.455,0.404,0.385,0.203,0.177,�k,5.6,��
2016/04/07,19:00,0.434,0.252,0.452,0.401,0.385,0.202,0.176,�k�k��,4.3,��
2016/04/07,19:10,0.438,0.254,0.457,0.404,0.387,0.203,0.177,�k,2.8,��
2016/04/07,19:20,0.435,0.252,0.453,0.402,0.383,0.204,0.177,�k�k��,0.9,��
2016/04/07,19:30,0.438,0.255,0.457,0.403,0.387,0.203,0.177,��,2.3,��
2016/04/07,19:40,0.432,0.253,0.453,0.402,0.385,0.203,0.177,��,5.3,��
2016/04/07,19:50,0.437,0.254,0.458,0.403,0.384,0.203,0.177,��쐼,5.4,��
2016/04/07,20:00,0.434,0.254,0.454,0.402,0.384,0.203,0.177,��쐼,4.2,��
2016/04/07,20:10,0.438,0.253,0.455,0.404,0.383,0.203,0.178,��쐼,3.6,��
2016/04/07,20:20,0.436,0.254,0.457,0.403,0.387,0.204,0.178,��,3.1,��
2016/04/07,20:30,0.434,0.253,0.455,0.401,0.384,0.204,0.178,��쓌,2.9,��
2016/04/07,20:40,0.438,0.254,0.456,0.405,0.386,0.204,0.177,��쓌,4.2,��
2016/04/07,20:50,0.435,0.254,0.453,0.402,0.385,0.204,0.178,��쓌,3.8,��
2016/04/07,21:00,0.439,0.254,0.459,0.406,0.385,0.204,0.178,��쓌,4.8,��
2016/04/07,21:10,0.434,0.255,0.453,0.404,0.387,0.205,0.178,��,5.5,��
2016/04/07,21:20,0.439,0.253,0.459,0.404,0.384,0.204,0.177,�쓌,3.1,��
2016/04/07,21:30,0.437,0.254,0.456,0.405,0.385,0.203,0.177,��쓌,3.6,��
2016/04/07,21:40,0.435,0.253,0.455,0.403,0.384,0.205,0.178,�쓌,2.5,��
2016/04/07,21:50,0.438,0.253,0.457,0.405,0.384,0.204,0.177,���쓌,1.4,��
2016/04/07,22:00,0.435,0.254,0.455,0.403,0.384,0.204,0.178,���k��,2.0,��
2016/04/07,22:10,0.440,0.254,0.459,0.405,0.384,0.204,0.179,�k�k��,2.4,��
2016/04/07,22:20,0.436,0.253,0.455,0.401,0.385,0.204,0.177,�k,3.1,��
2016/04/07,22:30,0.438,0.254,0.458,0.405,0.383,0.205,0.177,�k�k��,3.3,��
2016/04/07,22:40,0.437,0.253,0.456,0.406,0.385,0.205,0.178,�k�k��,1.9,��
2016/04/07,22:50,0.436,0.255,0.457,0.404,0.386,0.206,0.177,�k�k��,2.7,��
2016/04/07,23:00,0.440,0.254,0.458,0.405,0.382,0.205,0.178,�k�k��,2.8,��
2016/04/07,23:10,0.437,0.254,0.456,0.406,0.386,0.206,0.178,�k�k��,2.5,��
2016/04/07,23:20,0.440,0.255,0.459,0.404,0.385,0.205,0.178,�k�k��,0.9,��
2016/04/07,23:30,0.439,0.255,0.458,0.407,0.385,0.205,0.178,�k�k��,3.9,��
2016/04/07,23:40,0.439,0.254,0.457,0.404,0.386,0.205,0.179,�k,1.8,��
2016/04/07,23:50,0.440,0.255,0.459,0.407,0.385,0.206,0.178,���k��,2.5,��
